Home > Weather > Germany > Dortmund > Past weeks

Flag for Germany Weather past 2 weeks in Dortmund, North Rhine-Westphalia, Germany

46 °F

Partly sunny.

Feels Like: 43 °F
Forecast: 47 / 52 °F
Wind: 7 mph from Southwest

Location: Dortmund / Wickede

Current Time: Dec 1, 2015 at 4:36:40 PM

Latest Report: Dec 1, 2015 at 3:50 PM

Visibility: N/A

Pressure: 30.21 "Hg

Humidity: 87%

Dew point: 43 °F

Location of DortmundLocation

Historic Weather in Dortmund — Graph


Dortmund temperature yesterday

Maximum temperature yesterday: 50 °F (at 3:50 PM)
Minimum temperature yesterday: 43 °F (at 12:20 PM)
Average temperature yesterday: 47 °F

Past Weeks' High & Low Weather Summary

High59 °F (Nov 17, 9:20 PM)93% (Nov 21, 10:20 PM)30.24 "Hg (Nov 21, 10:20 PM)
Low32 °F (Nov 22, 6:20 AM)57% (Nov 30, 7:50 AM)29.39 "Hg (Nov 21, 5:20 AM)
Average43 °F77%29.85 "Hg
* Reported Nov 16 3:20 PM — Dec 1 3:20 PM, Dortmund, Weather by CustomWeather, © 2015

Note: Actual official high and low records may vary slightly from our data, if they occured in-between our weather recording intervals... More about our weather records


Dortmund weather history for previous 24 hours

Time TempWeatherWind HumidityBarometerVisibility
3:20 PM
Tue, Dec 1
46 °FPartly sunny.8 mph87%30.21 "Hg5 mi
2:50 PM46 °FLight rain. Partly sunny.7 mph87%30.21 "Hg4 mi
2:20 PM46 °FBroken clouds.6 mph82%30.21 "Hg6 mi
1:50 PM45 °FPartly sunny.8 mph87%30.21 "HgN/A
1:20 PM46 °FPartly sunny.8 mph82%30.21 "HgN/A
12:50 PM46 °FLight rain. Scattered clouds.8 mph82%30.21 "HgN/A
12:20 PM46 °FPartly sunny.7 mph76%30.21 "HgN/A
11:50 AM46 °FSunny.7 mph76%30.21 "Hg10 mi
11:20 AM45 °FSunny.7 mph81%30.21 "Hg10 mi
10:50 AM45 °FPassing clouds.7 mph81%30.21 "HgN/A
10:20 AM45 °FPartly sunny.5 mph81%30.21 "HgN/A
9:50 AM45 °FScattered clouds.5 mph81%30.21 "HgN/A
8:50 AM45 °FPartly sunny.6 mph81%30.18 "HgN/A
8:20 AM45 °FScattered clouds.5 mph81%30.18 "HgN/A
7:50 AM45 °FPassing clouds.3 mph76%30.15 "HgN/A
7:20 AM45 °FOvercast.3 mph76%30.15 "HgN/A
6:50 AM45 °FOvercast.3 mph76%30.15 "HgN/A
6:20 AM45 °FPassing clouds.3 mph76%30.12 "HgN/A
5:50 AM45 °FOvercast.5 mph81%30.12 "HgN/A
10:50 PM
Mon, Nov 30
50 °FLight rain. Passing clouds.23 mph88%29.86 "Hg5 mi
10:20 PM50 °FLight rain. Passing clouds.24 mph82%29.86 "Hg6 mi
9:50 PM50 °FLight rain. Passing clouds.24 mph82%29.83 "HgN/A
9:20 PM50 °FLight rain. Passing clouds.26 mph82%29.83 "HgN/A
8:50 PM50 °FLight rain. Passing clouds.24 mph82%29.83 "HgN/A
8:20 PM50 °FLight rain. Passing clouds.25 mph82%29.83 "HgN/A
7:50 PM50 °FLight rain. Passing clouds.28 mph82%29.83 "HgN/A
7:20 PM48 °FLight rain. Passing clouds.28 mph87%29.83 "HgN/A
6:50 PM50 °FLight rain. Passing clouds.25 mph82%29.83 "HgN/A
6:20 PM48 °FLight rain. Passing clouds.29 mph82%29.83 "HgN/A
5:50 PM48 °FLight rain. Passing clouds.24 mph82%29.83 "HgN/A
5:20 PM48 °FLight rain. Passing clouds.24 mph87%29.83 "HgN/A
4:50 PM50 °FLight rain. Passing clouds.26 mph82%29.86 "HgN/A
4:20 PM48 °FLight rain. Partly sunny.25 mph87%29.86 "Hg6 mi
Weather by CustomWeather, © 2015

See weather overviewHow to use our weather pages